ACA204 CYVR-CYYC

Flight info

Callsign ACA204
Flight time 1h 0m
Altitude 37000
Route YVR DCT DAPED DCT PETLI DCT MENBO Q983 NORET IGVEP7 CYYC
Aircraft B38M/M-V/N

Departure

Time 2026-05-07 13:34
Airport Vancouver International Airport (CYVR)

Arrival

Time 2026-05-07 14:34
Airport Calgary International Airport (CYYC)
Time Latitude Longitude Altitude Speed Heading
2026-05-07 13:13 49.19572 -123.18617 27 ft 0 kts 99°
2026-05-07 13:25 49.19572 -123.18618 27 ft 2 kts 99°
2026-05-07 13:25 49.19578 -123.18655 27 ft 4 kts 113°
2026-05-07 13:25 49.19592 -123.18688 27 ft 4 kts 142°
2026-05-07 13:25 49.19612 -123.18699 27 ft 2 kts 189°
2026-05-07 13:26 49.19613 -123.18698 27 ft 1 kts 189°
2026-05-07 13:29 49.19609 -123.18699 27 ft 2 kts 189°
2026-05-07 13:29 49.19570 -123.18710 27 ft 11 kts 189°
2026-05-07 13:29 49.19477 -123.18734 27 ft 15 kts 190°
2026-05-07 13:29 49.19394 -123.18779 27 ft 12 kts 239°
2026-05-07 13:30 49.19371 -123.18918 27 ft 15 kts 258°
2026-05-07 13:30 49.19351 -123.19085 27 ft 18 kts 259°
2026-05-07 13:30 49.19325 -123.19300 27 ft 23 kts 259°
2026-05-07 13:30 49.19292 -123.19566 27 ft 27 kts 259°
2026-05-07 13:31 49.19255 -123.19860 27 ft 29 kts 259°
2026-05-07 13:31 49.19217 -123.20171 27 ft 30 kts 259°
2026-05-07 13:31 49.19189 -123.20393 27 ft 22 kts 259°
2026-05-07 13:31 49.19188 -123.20595 27 ft 19 kts 280°
2026-05-07 13:32 49.19203 -123.20764 27 ft 12 kts 259°
2026-05-07 13:32 49.19132 -123.20835 27 ft 14 kts 189°
2026-05-07 13:32 49.19042 -123.20857 27 ft 7 kts 188°
2026-05-07 13:32 49.19014 -123.20815 27 ft 0 kts 102°
2026-05-07 13:33 49.19010 -123.20787 27 ft 13 kts 102°
2026-05-07 13:33 49.18950 -123.20253 27 ft 87 kts 100°
2026-05-07 13:34 49.18809 -123.19025 27 ft 145 kts 100°
2026-05-07 13:34 49.18428 -123.15620 1067 ft 168 kts 99°
2026-05-07 13:34 49.18243 -123.13844 1793 ft 171 kts 98°
2026-05-07 13:35 49.18054 -123.11944 2247 ft 191 kts 96°
2026-05-07 13:35 49.18006 -123.09791 2631 ft 216 kts 90°
2026-05-07 13:35 49.17994 -123.07355 3060 ft 241 kts 90°
2026-05-07 13:35 49.17968 -123.04694 3635 ft 259 kts 90°
2026-05-07 13:36 49.17932 -123.01923 4545 ft 260 kts 91°
2026-05-07 13:36 49.17889 -122.99145 5435 ft 265 kts 91°
2026-05-07 13:36 49.17842 -122.96309 6318 ft 268 kts 91°
2026-05-07 13:36 49.17792 -122.93442 7133 ft 271 kts 91°
2026-05-07 13:37 49.17738 -122.90532 7900 ft 276 kts 91°
2026-05-07 13:37 49.17683 -122.87584 8675 ft 280 kts 92°
2026-05-07 13:37 49.17627 -122.84628 9424 ft 284 kts 92°
2026-05-07 13:37 49.17569 -122.81590 10176 ft 289 kts 92°
2026-05-07 13:38 49.17509 -122.78441 10563 ft 306 kts 92°
2026-05-07 13:38 49.17443 -122.75087 10871 ft 324 kts 92°
2026-05-07 13:38 49.17373 -122.71575 11338 ft 335 kts 91°
2026-05-07 13:38 49.17301 -122.68010 12074 ft 338 kts 91°
2026-05-07 13:39 49.17226 -122.64391 12790 ft 343 kts 91°
2026-05-07 13:39 49.17149 -122.60725 13540 ft 347 kts 90°
2026-05-07 13:39 49.17070 -122.57009 14267 ft 352 kts 90°
2026-05-07 13:39 49.16988 -122.53245 14936 ft 357 kts 90°
2026-05-07 13:40 49.16904 -122.49423 15613 ft 362 kts 90°
2026-05-07 13:40 49.16818 -122.45551 16273 ft 367 kts 89°
2026-05-07 13:40 49.16729 -122.41618 16926 ft 373 kts 89°
2026-05-07 13:40 49.16637 -122.37631 17586 ft 378 kts 89°
2026-05-07 13:41 49.16543 -122.33593 18207 ft 383 kts 89°
2026-05-07 13:41 49.16446 -122.29492 18772 ft 388 kts 89°
2026-05-07 13:41 49.16346 -122.25351 19330 ft 392 kts 89°
2026-05-07 13:41 49.16278 -122.22594 19689 ft 395 kts 89°
2026-05-07 13:42 49.16174 -122.18374 20232 ft 399 kts 89°
2026-05-07 13:42 49.16068 -122.14125 20766 ft 402 kts 89°
2026-05-07 13:42 49.15959 -122.09836 21302 ft 406 kts 89°
2026-05-07 13:42 49.15848 -122.05504 21821 ft 410 kts 89°
2026-05-07 13:43 49.15734 -122.01133 22364 ft 413 kts 89°
2026-05-07 13:43 49.15617 -121.96726 22855 ft 417 kts 89°
2026-05-07 13:43 49.15497 -121.92284 23373 ft 421 kts 89°
2026-05-07 13:43 49.15375 -121.87803 23866 ft 424 kts 89°
2026-05-07 13:44 49.15250 -121.83284 24279 ft 427 kts 88°
2026-05-07 13:44 49.15123 -121.78733 24712 ft 431 kts 88°
2026-05-07 13:44 49.14992 -121.74138 25154 ft 434 kts 88°
2026-05-07 13:44 49.14859 -121.69517 25538 ft 438 kts 88°
2026-05-07 13:45 49.15043 -121.64896 25927 ft 434 kts 76°
2026-05-07 13:45 49.15480 -121.60296 26266 ft 440 kts 77°
2026-05-07 13:45 49.15899 -121.55655 26715 ft 442 kts 77°
2026-05-07 13:45 49.16313 -121.51039 27088 ft 446 kts 77°
2026-05-07 13:46 49.16739 -121.46266 27452 ft 449 kts 77°
2026-05-07 13:46 49.17154 -121.41585 27840 ft 451 kts 77°
2026-05-07 13:46 49.17577 -121.36816 28183 ft 455 kts 77°
2026-05-07 13:46 49.18000 -121.32008 28518 ft 459 kts 77°
2026-05-07 13:47 49.18425 -121.27159 28869 ft 462 kts 77°
2026-05-07 13:47 49.18850 -121.22282 29241 ft 465 kts 77°
2026-05-07 13:47 49.19276 -121.17370 29579 ft 468 kts 77°
2026-05-07 13:47 49.19703 -121.12419 29923 ft 471 kts 77°
2026-05-07 13:48 49.20131 -121.07438 30215 ft 474 kts 77°
2026-05-07 13:48 49.20559 -121.02431 30556 ft 476 kts 77°
2026-05-07 13:48 49.20987 -120.97384 30797 ft 480 kts 77°
2026-05-07 13:48 49.21416 -120.92308 31110 ft 482 kts 77°
2026-05-07 13:49 49.21844 -120.87212 31412 ft 484 kts 77°
2026-05-07 13:49 49.22273 -120.82088 31674 ft 487 kts 77°
2026-05-07 13:49 49.22701 -120.76940 31966 ft 489 kts 77°
2026-05-07 13:49 49.23129 -120.71763 32231 ft 492 kts 77°
2026-05-07 13:50 49.23556 -120.66567 32488 ft 494 kts 77°
2026-05-07 13:50 49.23984 -120.61330 32742 ft 496 kts 77°
2026-05-07 13:50 49.24409 -120.56092 32995 ft 498 kts 77°
2026-05-07 13:50 49.24836 -120.50815 33250 ft 500 kts 77°
2026-05-07 13:51 49.25261 -120.45524 33564 ft 501 kts 77°
2026-05-07 13:51 49.25684 -120.40230 33918 ft 501 kts 77°
2026-05-07 13:51 49.26104 -120.34940 34257 ft 500 kts 77°
2026-05-07 13:51 49.26515 -120.29726 34533 ft 500 kts 77°
2026-05-07 13:52 49.26935 -120.24376 34830 ft 500 kts 77°
2026-05-07 13:52 49.27342 -120.19161 35098 ft 499 kts 77°
2026-05-07 13:52 49.27751 -120.13882 35378 ft 499 kts 77°
2026-05-07 13:52 49.28157 -120.08607 35636 ft 499 kts 77°
2026-05-07 13:53 49.28562 -120.03335 35893 ft 498 kts 77°
2026-05-07 13:53 49.28962 -119.98076 36154 ft 498 kts 77°
2026-05-07 13:53 49.29361 -119.92802 36395 ft 498 kts 77°
2026-05-07 13:53 49.29757 -119.87528 36563 ft 498 kts 78°
2026-05-07 13:54 49.30153 -119.82249 36719 ft 498 kts 78°
2026-05-07 13:54 49.30545 -119.76990 36961 ft 498 kts 78°
2026-05-07 13:54 49.30936 -119.71707 37080 ft 499 kts 78°
2026-05-07 13:55 49.32060 -119.61318 37044 ft 483 kts 62°
2026-05-07 13:55 49.34947 -119.52174 37057 ft 477 kts 56°
2026-05-07 13:56 49.37920 -119.43066 37066 ft 477 kts 56°
2026-05-07 13:56 49.40897 -119.33966 37068 ft 478 kts 56°
2026-05-07 13:57 49.43874 -119.24837 37048 ft 477 kts 56°
2026-05-07 13:57 49.46838 -119.15714 37038 ft 477 kts 56°
2026-05-07 13:58 49.49799 -119.06568 37024 ft 477 kts 56°
2026-05-07 13:58 49.52752 -118.97417 37041 ft 477 kts 56°
2026-05-07 13:59 49.55697 -118.88248 37039 ft 478 kts 56°
2026-05-07 13:59 49.58616 -118.79133 37036 ft 478 kts 56°
2026-05-07 14:00 49.61555 -118.69918 37028 ft 478 kts 56°
2026-05-07 14:00 49.64481 -118.60712 37029 ft 478 kts 56°
2026-05-07 14:01 49.67402 -118.51486 37012 ft 478 kts 56°
2026-05-07 14:01 49.70314 -118.42256 37024 ft 479 kts 56°
2026-05-07 14:02 49.73221 -118.33006 37026 ft 478 kts 56°
2026-05-07 14:02 49.76123 -118.23740 37010 ft 478 kts 56°
2026-05-07 14:03 49.79017 -118.14464 37020 ft 479 kts 57°
2026-05-07 14:03 49.81902 -118.05178 37029 ft 479 kts 57°
2026-05-07 14:04 49.84785 -117.95869 37023 ft 479 kts 57°
2026-05-07 14:04 49.87660 -117.86549 37036 ft 481 kts 57°
2026-05-07 14:05 49.90537 -117.77187 37033 ft 479 kts 57°
2026-05-07 14:05 49.93397 -117.67844 37031 ft 480 kts 57°
2026-05-07 14:06 49.96247 -117.58498 37044 ft 479 kts 57°
2026-05-07 14:06 49.99092 -117.49133 37049 ft 479 kts 57°
2026-05-07 14:07 50.01929 -117.39760 37025 ft 479 kts 57°
2026-05-07 14:07 50.04743 -117.30424 37028 ft 480 kts 58°
2026-05-07 14:08 50.07560 -117.21044 37070 ft 479 kts 58°
2026-05-07 14:08 50.10369 -117.11656 37033 ft 478 kts 58°
2026-05-07 14:09 50.13175 -117.02240 37011 ft 479 kts 58°
2026-05-07 14:09 50.15976 -116.92804 37025 ft 480 kts 58°
2026-05-07 14:10 50.18763 -116.83380 36248 ft 478 kts 58°
2026-05-07 14:10 50.20164 -116.78626 35263 ft 486 kts 59°
2026-05-07 14:10 50.21565 -116.73856 34743 ft 480 kts 59°
2026-05-07 14:10 50.22954 -116.69131 34119 ft 479 kts 59°
2026-05-07 14:11 50.24342 -116.64393 33302 ft 479 kts 59°
2026-05-07 14:11 50.25704 -116.59736 32727 ft 475 kts 59°
2026-05-07 14:11 50.27065 -116.55074 32283 ft 468 kts 59°
2026-05-07 14:11 50.28406 -116.50475 31780 ft 463 kts 59°
2026-05-07 14:12 50.29736 -116.45902 31258 ft 460 kts 59°
2026-05-07 14:12 50.31056 -116.41360 30707 ft 458 kts 59°
2026-05-07 14:12 50.32366 -116.36844 30188 ft 455 kts 59°
2026-05-07 14:12 50.33670 -116.32344 29610 ft 452 kts 59°
2026-05-07 14:13 50.34959 -116.27881 29050 ft 449 kts 60°
2026-05-07 14:13 50.36239 -116.23446 28538 ft 445 kts 60°
2026-05-07 14:13 50.37506 -116.19045 28050 ft 441 kts 60°
2026-05-07 14:13 50.38752 -116.14684 27534 ft 438 kts 62°
2026-05-07 14:14 50.39746 -116.10157 26990 ft 438 kts 66°
2026-05-07 14:14 50.40716 -116.05653 26538 ft 433 kts 66°
2026-05-07 14:14 50.41692 -116.01209 26073 ft 430 kts 66°
2026-05-07 14:14 50.42670 -115.96794 25610 ft 427 kts 66°
2026-05-07 14:15 50.43646 -115.92399 25143 ft 425 kts 66°
2026-05-07 14:15 50.44614 -115.88036 24692 ft 422 kts 66°
2026-05-07 14:15 50.45578 -115.83688 24231 ft 421 kts 66°
2026-05-07 14:15 50.46537 -115.79349 23785 ft 419 kts 66°
2026-05-07 14:16 50.47476 -115.75094 23298 ft 418 kts 66°
2026-05-07 14:16 50.48422 -115.70800 22814 ft 415 kts 66°
2026-05-07 14:16 50.49357 -115.66547 22383 ft 410 kts 66°
2026-05-07 14:16 50.50282 -115.62331 21976 ft 406 kts 66°
2026-05-07 14:17 50.51197 -115.58150 21548 ft 402 kts 66°
2026-05-07 14:17 50.52100 -115.54013 21138 ft 399 kts 66°
2026-05-07 14:17 50.52999 -115.49894 20719 ft 397 kts 67°
2026-05-07 14:17 50.53887 -115.45810 20309 ft 393 kts 67°
2026-05-07 14:18 50.54758 -115.41753 19875 ft 391 kts 67°
2026-05-07 14:18 50.55624 -115.37711 19475 ft 387 kts 67°
2026-05-07 14:18 50.56480 -115.33717 19079 ft 384 kts 67°
2026-05-07 14:18 50.57327 -115.29753 18691 ft 381 kts 67°
2026-05-07 14:19 50.58164 -115.25827 18279 ft 377 kts 68°
2026-05-07 14:19 50.58996 -115.21920 17786 ft 375 kts 68°
2026-05-07 14:19 50.59818 -115.18053 17411 ft 371 kts 68°
2026-05-07 14:19 50.60631 -115.14215 17019 ft 368 kts 68°
2026-05-07 14:20 50.61436 -115.10411 16636 ft 365 kts 68°
2026-05-07 14:20 50.62235 -115.06631 16259 ft 362 kts 68°
2026-05-07 14:20 50.63029 -115.02884 15853 ft 360 kts 68°
2026-05-07 14:20 50.63818 -114.99159 15492 ft 357 kts 68°
2026-05-07 14:21 50.64598 -114.95465 15130 ft 354 kts 68°
2026-05-07 14:21 50.65370 -114.91802 14763 ft 351 kts 68°
2026-05-07 14:21 50.66135 -114.88164 14405 ft 348 kts 68°
2026-05-07 14:21 50.66890 -114.84558 14031 ft 345 kts 68°
2026-05-07 14:22 50.67637 -114.80972 13661 ft 343 kts 68°
2026-05-07 14:22 50.68372 -114.77437 13473 ft 334 kts 68°
2026-05-07 14:22 50.69083 -114.74009 13344 ft 324 kts 69°
2026-05-07 14:22 50.69774 -114.70677 13188 ft 315 kts 68°
2026-05-07 14:23 50.70449 -114.67443 13026 ft 305 kts 66°
2026-05-07 14:23 50.71505 -114.64653 12755 ft 292 kts 43°
2026-05-07 14:23 50.72890 -114.62424 12547 ft 285 kts 42°
2026-05-07 14:23 50.74243 -114.60190 12316 ft 279 kts 42°
2026-05-07 14:24 50.75575 -114.57995 12103 ft 274 kts 43°
2026-05-07 14:24 50.76670 -114.55489 11727 ft 287 kts 62°
2026-05-07 14:24 50.77462 -114.52496 11318 ft 302 kts 63°
2026-05-07 14:24 50.78316 -114.49425 10958 ft 307 kts 63°
2026-05-07 14:25 50.79195 -114.46319 10637 ft 310 kts 62°
2026-05-07 14:25 50.79948 -114.43688 10451 ft 307 kts 62°
2026-05-07 14:25 50.80821 -114.40658 10317 ft 298 kts 62°
2026-05-07 14:25 50.81671 -114.37719 10182 ft 290 kts 62°
2026-05-07 14:26 50.82499 -114.34856 9983 ft 284 kts 62°
2026-05-07 14:26 50.83322 -114.32017 9665 ft 283 kts 62°
2026-05-07 14:26 50.84138 -114.29195 9337 ft 282 kts 61°
2026-05-07 14:26 50.84949 -114.26390 9036 ft 280 kts 61°
2026-05-07 14:27 50.85757 -114.23590 8725 ft 279 kts 61°
2026-05-07 14:27 50.86559 -114.20814 8435 ft 275 kts 61°
2026-05-07 14:27 50.87338 -114.18099 8318 ft 266 kts 60°
2026-05-07 14:27 50.88095 -114.15469 8173 ft 258 kts 60°
2026-05-07 14:28 50.88828 -114.12923 8063 ft 250 kts 60°
2026-05-07 14:28 50.89535 -114.10462 7918 ft 242 kts 60°
2026-05-07 14:28 50.90211 -114.08105 7784 ft 233 kts 60°
2026-05-07 14:28 50.90871 -114.05801 7642 ft 225 kts 60°
2026-05-07 14:29 50.91507 -114.03582 7502 ft 216 kts 59°
2026-05-07 14:29 50.92121 -114.01484 7350 ft 203 kts 54°
2026-05-07 14:29 50.93071 -113.99995 7080 ft 187 kts 22°
2026-05-07 14:29 50.94265 -113.99296 6850 ft 181 kts
2026-05-07 14:30 50.95504 -113.99046 6639 ft 178 kts 359°
2026-05-07 14:30 50.96743 -113.99046 6420 ft 178 kts 358°
2026-05-07 14:30 50.97974 -113.99055 6178 ft 176 kts 358°
2026-05-07 14:30 50.99194 -113.99054 5957 ft 172 kts 358°
2026-05-07 14:31 51.00355 -113.99052 5728 ft 162 kts 358°
2026-05-07 14:31 51.01440 -113.99051 5516 ft 151 kts 358°
2026-05-07 14:31 51.02448 -113.99049 5374 ft 140 kts 357°
2026-05-07 14:31 51.03088 -113.99048 5268 ft 138 kts 357°
2026-05-07 14:32 51.04044 -113.99043 5046 ft 137 kts 358°
2026-05-07 14:32 51.05301 -113.99025 4813 ft 135 kts 357°
2026-05-07 14:32 51.05935 -113.99028 4687 ft 135 kts 357°
2026-05-07 14:32 51.06886 -113.99030 4500 ft 138 kts 356°
2026-05-07 14:33 51.08194 -113.99033 4211 ft 146 kts 356°
2026-05-07 14:33 51.09169 -113.99043 3992 ft 148 kts 357°
2026-05-07 14:33 51.09861 -113.99038 3847 ft 147 kts 358°
2026-05-07 14:33 51.10877 -113.99032 3654 ft 144 kts 357°
2026-05-07 14:34 51.11840 -113.99034 3563 ft 125 kts 356°
2026-05-07 14:34 51.12488 -113.99035 3559 ft 61 kts 360°
2026-05-07 14:34 51.12781 -113.99035 3564 ft 34 kts 359°
2026-05-07 14:34 51.12995 -113.99103 3562 ft 25 kts 336°
2026-05-07 14:35 51.13107 -113.99213 3560 ft 11 kts 311°
2026-05-07 14:35 51.13077 -113.99303 3555 ft 12 kts 186°
2026-05-07 14:35 51.12988 -113.99306 3561 ft 14 kts 180°
2026-05-07 14:35 51.12877 -113.99306 3563 ft 18 kts 180°
2026-05-07 14:36 51.12740 -113.99305 3562 ft 22 kts 180°
2026-05-07 14:36 51.12628 -113.99318 3563 ft 10 kts 212°
2026-05-07 14:36 51.12612 -113.99428 3562 ft 12 kts 270°
2026-05-07 14:36 51.12613 -113.99568 3562 ft 13 kts 270°
2026-05-07 14:37 51.12613 -113.99728 3562 ft 16 kts 270°
2026-05-07 14:37 51.12613 -114.00143 3562 ft 21 kts 270°
2026-05-07 14:37 51.12613 -114.00383 3562 ft 22 kts 270°
2026-05-07 14:38 51.12616 -114.00602 3562 ft 12 kts 283°
2026-05-07 14:38 51.12681 -114.00643 3561 ft 10 kts 358°
2026-05-07 14:38 51.12740 -114.00647 3562 ft 7 kts 347°
2026-05-07 14:38 51.12773 -114.00685 3562 ft 5 kts 316°
2026-05-07 14:39 51.12794 -114.00715 3560 ft 4 kts 317°
2026-05-07 14:39 51.12813 -114.00743 3555 ft 4 kts 317°
2026-05-07 14:39 51.12826 -114.00763 3559 ft 0 kts 317°